Regional Weather Roundup
Issued by NWS

Home | Current Version | Previous Version | Graphics & Text | Print | Product List | Glossary On
Versions: 1 2 3 4 5 6 7 8 9 10 11 12 13 14 15 16 17 18 19 20 21 22 23 24 25 26 27 28 29 30 31 32 33 34 35 36 37 38 39 40 41 42 43 44 45 46 47 48 49 50
000
ASUS43 KLOT 241408
RWRIL

ILLINOIS REGIONAL WEATHER ROUNDUP
NATIONAL WEATHER SERVICE CHICAGO/ROMEOVILLE IL
900 AM CDT MON APR 24 2017

NOTE: "FAIR" INDICATES FEW OR NO CLOUDS BELOW 12,000 FEET WITH NO
SIGNIFICANT WEATHER AND/OR OBSTRUCTIONS TO VISIBILITY.

* THESE STATIONS ARE NOT UNDER NWS QUALITY CONTROL. THEY ALSO MAY NOT
  REPORT WEATHER SUCH AS PRECIPITATION OR FOG.

ILZ001-002-007-009-015-016-024-241500-
NORTHWEST ILLINOIS

CITY           SKY/WX    TMP DP  RH WIND       PRES   REMARKS
MOLINE         SUNNY     60  33  36 SE7       29.98S
STERLING*      CLOUDY    59  35  40 SE9       30.00S
SAVANNA*       MOSUNNY   58  33  39 S10       29.99F
$$

ILZ003-004-008-010-011-017-018-241500-
NORTH CENTRAL ILLINOIS

CITY           SKY/WX    TMP DP  RH WIND       PRES   REMARKS
ROCKFORD       PTSUNNY   54  41  61 SE9       30.03F
FREEPORT*      MOSUNNY   52  39  60 SE8       30.02S
ROCHELLE*      CLOUDY    56  39  52 SE8       30.01F
DE KALB*       MOSUNNY   56  40  55 SE9       30.02F
PERU*          SUNNY     52  37  55 E3        30.02S
$$

ILZ005-006-012>014-019>023-241500-
NORTHEAST ILLINOIS

CITY           SKY/WX    TMP DP  RH WIND       PRES   REMARKS
CHICAGO-OHARE  MOSUNNY   52  39  61 CALM      30.02S
CHICAGO-MIDWAY MOSUNNY   56  42  59 E5        30.03S
AURORA         SUNNY     57  42  57 SE6       30.02F
LANSING*       SUNNY     55  45  68 E3        30.03S
JOLIET*        SUNNY     58  42  55 SE3       30.02S
WAUKEGAN       SUNNY     50  40  68 E6        30.02F
DUPAGE AIRPORT SUNNY     55  41  59 SE3       30.02S
KANKAKEE*      SUNNY     59  38  46 CALM      30.03R
WHEELING       SUNNY     52  41  66 CALM      30.04S
MORRIS*        SUNNY     54  41  61 CALM      30.01F
ROMEOVILLE*    SUNNY     56  46  68 CALM      30.02S
NORTHERLY ISL    N/A     48  41  76 NE6         N/A
$$

LMZ740>746-241500-
SOUTHERN LAKE MICHIGAN

STATION/POSITION SKY/WX   TEMP    WIND        PRES    VSBY  WAVE
                          AIR SEA DIR/SP/G                  HT/PER
                          (F)     (DEG/KT/KT) (MB)    (MI)  (FT/S)
SOUTHERN BUOY              42 40   60/  6/  8 1018.0          2/ 6
HARRISON CRIB              44      10/  5/  5   N/A
BURNHAM HARBOR             48      30/  4/  6   N/A
CALUMET HARBOR             48      30/  4/  6 1016.6S
BURNS HARBOR               46        CALM     1017.6S
MICHIGAN CITY              50     320/  2/  2   N/A
ST. JOSEPH                 55 50  140/  6/ 10 1017.6F         2/ 2
$$

ILZ025>027-034>036-040-047-049-050-058-095>099-241500-
WEST-CENTRAL ILLINOIS

CITY           SKY/WX    TMP DP  RH WIND       PRES   REMARKS
QUINCY         SUNNY     61  36  39 SE8       29.98R
GALESBURG*     CLOUDY    57  35  42 S6        29.99R
MACOMB*        MOSUNNY   59  33  37 S5        30.01R
JACKSONVILLE*  MOSUNNY   60  37  42 SE5       29.98S HAZE
PITTSFIELD*    CLOUDY    59  38  45 E3        29.99S
$$

ILZ028>032-037-038-041>044-048-051>054-059>061-241500-
CENTRAL ILLINOIS

CITY           SKY/WX    TMP DP  RH WIND       PRES   REMARKS
PONTIAC        SUNNY     62  34  34 E7        30.01F
BLOOMINGTON    SUNNY     62  31  31 E10       30.00F
DECATUR        SUNNY     61  38  42 E9        29.99S
PEORIA         SUNNY     61  35  37 SE5       29.99F
LACON*         MOSUNNY   59  37  44 CALM      30.00S
LINCOLN*       SUNNY     62  36  38 CALM      29.99S
SPRINGFIELD    SUNNY     61  36  39 E5        29.99F
TAYLORVILLE    SUNNY     60  37  41 E8        29.98R
$$

ILZ033-039-045-046-055>057-062-063-241500-
EAST-CENTRAL ILLINOIS

CITY           SKY/WX    TMP DP  RH WIND       PRES   REMARKS
CHAMPAIGN      SUNNY     61  34  36 E14       29.99S
RANTOUL*       SUNNY     63  34  34 E9        29.99F
MATTOON        SUNNY     59  41  51 E7        29.97S
PARIS*         SUNNY     61  38  43 NE7       30.00R
$$

ILZ079-100>102-241500-
SOUTHWEST ILLINOIS

CITY           SKY/WX    TMP DP  RH WIND       PRES   REMARKS
ALTON          MOSUNNY   57  37  47 SE5       29.98S
BELLEVILLE     CLOUDY    59  42  52 CALM      29.96S
CAHOKIA*       MOSUNNY   57  38  48 CALM      29.97S
SPARTA*        SUNNY     59  41  52 NE3       29.97S
$$

ILZ064>066-069>071-074>076-080>082-084>086-088>090-092>094-241500-
SOUTH-CENTRAL ILLINOIS

CITY           SKY/WX    TMP DP  RH WIND       PRES   REMARKS
CARBONDALE     SUNNY     58  41  53 NE6       29.95S
CAIRO*         SUNNY     59  44  58 NE9       29.92F
EFFINGHAM*     SUNNY     60  41  48 NE3       29.98F
MARION         MOSUNNY   57  41  54 NE6       29.94F
MT. VERNON     SUNNY     61  40  45 NE7       29.95F
CENTRALIA*     SUNNY     59  42  53 CALM      29.95F
SALEM*         SUNNY     61  39  44 NE3       29.96S
METROPOLIS*    SUNNY     60  45  57 NE8       29.93S
$$

ILZ067-068-072-073-078-083-087-091-241500-
SOUTHEAST ILLINOIS

CITY           SKY/WX    TMP DP  RH WIND       PRES   REMARKS
LAWRENCEVILLE  SUNNY     61  39  44 NE12      29.95R
FLORA*         SUNNY     60  40  48 NE6       29.97S
FAIRFIELD*     SUNNY     59  40  49 NE5       29.94S
HARRISBURG*    SUNNY     59  42  53 N6        29.94S
ROBINSON*      SUNNY     59  39  47 N6        29.97R
CARMI*         SUNNY     60  42  52 N9        29.94R
$$

ABBREVIATIONS USED IN REMARKS
   TC - TEMPERATURE IN CELSIUS
  WCI - WIND CHILL INDEX
   HX - HEAT INDEX
  VSB - VISIBILITY
$$





USA.gov is the U.S. government's official web portal to all federal, state and local government web resources and services.